Change the Weather History Date:

Sunday, February 9, 2014

  Actual Average Record
Temperature  
Mean Temperature 77 °F 78 °F  
Max Temperature 82 °F 84 °F 90 °F (1995)
Min Temperature 71 °F 72 °F 65 °F (1968)
Degree Days  
Heating Degree Days 0 0  
Month to date heating degree days 0 0  
Since 1 July heating degree days 0 0  
Cooling Degree Days 12 13  
Month to date cooling degree days 123 117  
Year to date cooling degree days 602 508  
Growing Degree Days 26 (Base 50)    
Moisture  
Dew Point 72 °F    
Average Humidity 87    
Maximum Humidity 100    
Minimum Humidity 74    
Precipitation  
Precipitation 0.00 in 0.09 in 1.38 in (2009)
Month to date precipitation 2.12 0.83  
Year to date precipitation 4.66 4.59  
Sea Level Pressure  
Sea Level Pressure 30.00 in    
Wind  
Wind Speed 7 mph (East)    
Max Wind Speed 21 mph    
Max Gust Speed 24 mph    
Visibility 10 miles    
Events      
T = Trace of Precipitation, MM = Missing Value Source: NWS Daily Summary

Daily Weather History Graph

Daily Weather History Graph

Search for Another Location

Airport or City:

Trip Planner

Search our weather history database for the weather conditions in past years. The results will help you decide how hot, cold, wet, or windy it might be!

Date:

Astronomy

Feb. 09, 2014 Rise Set
Actual Time 6:54 AM AST 6:22 PM AST
Civil Twilight 6:32 AM AST 6:44 PM AST
Nautical Twilight 6:06 AM AST 7:10 PM AST
Astronomical Twilight 5:40 AM AST 7:36 PM AST
Moon 2:12 PM AST (2/9) 2:43 AM AST (2/9)
Length of Visible Light 12h 12m
Length of Day
11h 27m
Waxing Gibbous, 76% of the Moon is Illuminated
Feb 9
Waxing Gibbous
Feb 14
Full
Feb 22
Last Quarter
Mar 1
New
Mar 8
First Quarter

Hourly Weather History & Observations

Time (AST) Temp. Heat Index Dew Point Humidity Pressure Visibility Wind Dir Wind Speed Gust Speed Precip Events Conditions
12:56 AM 73.9 °F - 71.1 °F 91% 30.03 in 10.0 mi ESE 4.6 mph - N/A   Partly Cloudy
1:56 AM 73.0 °F - 71.1 °F 93% 30.01 in 10.0 mi SE 4.6 mph - N/A   Partly Cloudy
2:56 AM 72.0 °F - 70.0 °F 93% 29.99 in 10.0 mi Calm Calm - N/A   Partly Cloudy
3:56 AM 72.0 °F - 70.0 °F 93% 29.98 in 10.0 mi Calm Calm - N/A   Partly Cloudy
4:56 AM 72.0 °F - 71.1 °F 97% 29.99 in 10.0 mi Calm Calm - N/A   Partly Cloudy
5:56 AM 72.0 °F - 72.0 °F 100% 30.00 in 10.0 mi Calm Calm - N/A   Scattered Clouds
6:56 AM 72.0 °F - 71.1 °F 97% 30.02 in 10.0 mi Calm Calm - N/A   Scattered Clouds
7:56 AM 73.0 °F - 72.0 °F 96% 30.04 in 10.0 mi Calm Calm - N/A   Scattered Clouds
8:56 AM 77.0 °F - 73.0 °F 88% 30.05 in 10.0 mi Calm Calm - N/A   Scattered Clouds
9:56 AM 79.0 °F - 73.9 °F 84% 30.06 in 10.0 mi East 5.8 mph - N/A   Scattered Clouds
10:56 AM 80.1 °F 83.8 °F 72.0 °F 76% 30.05 in 10.0 mi NE 12.7 mph - N/A   Scattered Clouds
11:56 AM 81.0 °F 85.2 °F 72.0 °F 74% 30.03 in 10.0 mi NE 13.8 mph - N/A   Scattered Clouds
12:56 PM 82.0 °F 87.4 °F 73.0 °F 74% 30.00 in 10.0 mi ENE 15.0 mph - N/A   Scattered Clouds
1:56 PM 81.0 °F 85.8 °F 73.0 °F 77% 29.97 in 10.0 mi ENE 13.8 mph - N/A   Scattered Clouds
2:56 PM 81.0 °F 85.8 °F 73.0 °F 77% 29.95 in 10.0 mi ENE 16.1 mph - N/A   Scattered Clouds
3:56 PM 80.1 °F 84.2 °F 73.0 °F 79% 29.95 in 10.0 mi ENE 16.1 mph - N/A   Scattered Clouds
4:56 PM 80.1 °F 84.5 °F 73.9 °F 81% 29.95 in 10.0 mi ENE 12.7 mph - N/A   Scattered Clouds
5:56 PM 78.1 °F - 73.0 °F 84% 29.96 in 10.0 mi East 11.5 mph - N/A   Scattered Clouds
6:56 PM 77.0 °F - 73.0 °F 88% 29.96 in 10.0 mi East 9.2 mph - N/A   Scattered Clouds
7:56 PM 75.9 °F - 73.0 °F 91% 29.99 in 10.0 mi ESE 8.1 mph - N/A   Partly Cloudy
8:56 PM 75.0 °F - 73.0 °F 94% 30.01 in 10.0 mi East 8.1 mph - N/A   Partly Cloudy
9:56 PM 75.0 °F - 72.0 °F 90% 30.01 in 10.0 mi ESE 3.5 mph - N/A   Partly Cloudy
10:56 PM 75.0 °F - 72.0 °F 90% 30.02 in 10.0 mi Calm Calm - N/A   Clear
11:56 PM 75.0 °F - 71.1 °F 87% 30.03 in 10.0 mi Calm Calm - N/A   Clear